Вернуться в каталог

STARLINK-35996

АктивенСвязьVLEO
NORAD 66800·PAYLOAD·🇺🇸 United States

Запущен Dec 1, 2025 с Cape Canaveral Space Force Station

Loading…

Ближайшие Пролёты (ближайшие 24 часа)

TLE

СвежийSource: CelesTrak SupGP

Эпоха: Sep 15, 2026, 04:01 UTC

1 66800C 25278K   26258.16784722  .00035589  00000+0  12887-2 0  2589
2 66800  42.9997 123.9576 0001503 270.0997   1.5174 15.27569727    18

Отслеживайте STARLINK-35996 в реальном времени с AllMySat

Download on the App Store